Time,TemperatureF,DewpointF,PressureIn,WindDirection,WindDirectionDegrees,WindSpeedMPH,WindSpeedGustMPH,Humidity,HourlyPrecipIn,Conditions,Clouds,dailyrainin,SoftwareType,DateUTC
2013-01-07 00:02:00,46.0,44.0,30.19,SE,131,0.0,0.0,92,-99.99,,,-99.99,,2013-01-07 08:02:00,
2013-01-07 00:11:00,46.0,44.0,30.19,SE,131,0.0,0.0,92,-99.99,,,-99.99,,2013-01-07 08:11:00,
2013-01-07 00:22:00,46.0,44.0,30.18,SE,130,0.0,0.0,92,-99.99,,,-99.99,,2013-01-07 08:22:00,
2013-01-07 00:32:00,45.0,43.0,30.18,SE,132,0.0,1.0,92,-99.99,,,-99.99,,2013-01-07 08:32:00,
2013-01-07 00:42:00,45.0,43.0,30.18,SE,132,0.0,1.0,92,-99.99,,,-99.99,,2013-01-07 08:42:00,
2013-01-07 00:52:00,46.0,44.0,30.18,SE,131,0.0,1.0,93,-99.99,,,-99.99,,2013-01-07 08:52:00,
2013-01-07 01:02:00,46.0,44.0,30.18,WSW,246,5.0,6.0,93,-99.99,,,-99.99,,2013-01-07 09:02:00,
2013-01-07 01:12:00,46.0,44.0,30.18,WSW,246,5.0,6.0,93,-99.99,,,-99.99,,2013-01-07 09:12:00,
2013-01-07 01:22:00,46.0,44.0,30.18,WSW,254,1.0,3.0,93,-99.99,,,-99.99,,2013-01-07 09:22:00,
2013-01-07 01:32:00,46.0,44.0,30.18,WSW,254,0.0,0.0,93,-99.99,,,-99.99,,2013-01-07 09:32:00,
2013-01-07 01:42:00,46.0,44.0,30.18,WSW,254,0.0,0.0,93,-99.99,,,-99.99,,2013-01-07 09:42:00,
2013-01-07 01:52:00,45.0,43.0,30.18,WSW,254,0.0,0.0,92,-99.99,,,-99.99,,2013-01-07 09:52:00,
2013-01-07 02:02:00,45.0,43.0,30.18,WSW,253,0.0,1.0,94,-99.99,,,-99.99,,2013-01-07 10:02:00,
2013-01-07 02:12:00,45.0,43.0,30.18,WSW,253,0.0,1.0,94,-99.99,,,-99.99,,2013-01-07 10:12:00,
2013-01-07 02:22:00,45.0,43.0,30.18,WSW,253,0.0,2.0,94,-99.99,,,-99.99,,2013-01-07 10:22:00,
2013-01-07 02:32:00,45.0,43.0,30.17,South,181,1.0,2.0,94,-99.99,,,-99.99,,2013-01-07 10:32:00,
2013-01-07 02:42:00,45.0,43.0,30.17,South,181,1.0,2.0,94,-99.99,,,-99.99,,2013-01-07 10:42:00,
2013-01-07 02:52:00,45.0,44.0,30.18,SSE,155,1.0,1.0,95,-99.99,,,-99.99,,2013-01-07 10:52:00,
2013-01-07 03:02:00,45.0,44.0,30.19,SSE,161,0.0,1.0,95,-99.99,,,-99.99,,2013-01-07 11:02:00,
2013-01-07 03:12:00,45.0,44.0,30.19,SSE,161,0.0,1.0,95,-99.99,,,-99.99,,2013-01-07 11:12:00,
2013-01-07 03:22:00,45.0,44.0,30.20,WNW,285,1.0,3.0,95,-99.99,,,-99.99,,2013-01-07 11:22:00,
2013-01-07 03:32:00,45.0,44.0,30.20,WNW,288,1.0,3.0,95,-99.99,,,-99.99,,2013-01-07 11:32:00,
2013-01-07 03:42:00,45.0,44.0,30.20,WNW,288,1.0,3.0,95,-99.99,,,-99.99,,2013-01-07 11:42:00,
2013-01-07 03:52:00,45.0,44.0,30.20,WNW,288,1.0,2.0,95,-99.99,,,-99.99,,2013-01-07 11:52:00,
2013-01-07 04:02:00,45.0,44.0,30.19,WNW,288,1.0,1.0,95,-99.99,,,-99.99,,2013-01-07 12:02:00,
2013-01-07 04:12:00,45.0,44.0,30.19,WNW,288,1.0,1.0,95,-99.99,,,-99.99,,2013-01-07 12:12:00,
2013-01-07 04:22:00,45.0,44.0,30.19,WNW,289,0.0,1.0,95,-99.99,,,-99.99,,2013-01-07 12:22:00,
2013-01-07 04:32:00,44.0,43.0,30.19,South,171,0.0,2.0,95,-99.99,,,-99.99,,2013-01-07 12:32:00,
2013-01-07 04:42:00,44.0,43.0,30.19,South,171,0.0,2.0,95,-99.99,,,-99.99,,2013-01-07 12:42:00,
2013-01-07 04:52:00,44.0,43.0,30.19,South,170,1.0,2.0,95,-99.99,,,-99.99,,2013-01-07 12:52:00,
2013-01-07 05:02:00,44.0,43.0,30.20,SSE,148,0.0,1.0,95,-99.99,,,-99.99,,2013-01-07 13:02:00,
2013-01-07 05:12:00,44.0,43.0,30.20,SSE,148,0.0,1.0,95,-99.99,,,-99.99,,2013-01-07 13:12:00,
2013-01-07 05:22:00,44.0,43.0,30.20,WSW,255,2.0,2.0,96,-99.99,,,-99.99,,2013-01-07 13:22:00,
2013-01-07 05:33:00,44.0,43.0,30.19,West,276,0.0,2.0,96,-99.99,,,-99.99,,2013-01-07 13:33:00,
2013-01-07 05:42:00,44.0,43.0,30.19,West,276,0.0,2.0,96,-99.99,,,-99.99,,2013-01-07 13:42:00,
2013-01-07 05:52:00,44.0,43.0,30.18,SE,146,2.0,2.0,95,-99.99,,,-99.99,,2013-01-07 13:52:00,
2013-01-07 06:03:00,44.0,43.0,30.19,SSE,157,1.0,2.0,96,-99.99,,,-99.99,,2013-01-07 14:03:00,
2013-01-07 06:12:00,44.0,43.0,30.19,SSE,157,1.0,2.0,96,-99.99,,,-99.99,,2013-01-07 14:12:00,
2013-01-07 06:22:00,44.0,43.0,30.19,SSE,157,1.0,2.0,96,-99.99,,,-99.99,,2013-01-07 14:22:00,
2013-01-07 06:32:00,44.0,43.0,30.20,SSE,151,0.0,2.0,96,-99.99,,,-99.99,,2013-01-07 14:32:00,
2013-01-07 06:42:00,44.0,43.0,30.20,SSE,151,0.0,2.0,96,-99.99,,,-99.99,,2013-01-07 14:42:00,
2013-01-07 06:53:00,44.0,43.0,30.20,SSE,151,1.0,2.0,96,-99.99,,,-99.99,,2013-01-07 14:53:00,
2013-01-07 07:03:00,44.0,43.0,30.21,SSE,155,0.0,1.0,96,-99.99,,,-99.99,,2013-01-07 15:03:00,
2013-01-07 07:12:00,44.0,43.0,30.21,SSE,155,0.0,1.0,96,-99.99,,,-99.99,,2013-01-07 15:12:00,
2013-01-07 07:22:00,44.0,43.0,30.21,SSE,155,0.0,0.0,96,-99.99,,,-99.99,,2013-01-07 15:22:00,
2013-01-07 07:33:00,44.0,43.0,30.21,SE,143,2.0,3.0,96,-99.99,,,-99.99,,2013-01-07 15:33:00,
2013-01-07 07:42:00,44.0,43.0,30.21,SE,143,2.0,3.0,96,-99.99,,,-99.99,,2013-01-07 15:42:00,
2013-01-07 07:52:00,44.0,43.0,30.21,SE,139,1.0,4.0,96,-99.99,,,-99.99,,2013-01-07 15:52:00,
2013-01-07 08:02:00,45.0,44.0,30.21,SE,138,1.0,6.0,96,-99.99,,,-99.99,,2013-01-07 16:02:00,
2013-01-07 08:12:00,45.0,44.0,30.21,SE,138,1.0,6.0,96,-99.99,,,-99.99,,2013-01-07 16:12:00,
2013-01-07 08:22:00,45.0,44.0,30.22,SSE,158,2.0,4.0,96,-99.99,,,-99.99,,2013-01-07 16:22:00,
2013-01-07 08:33:00,45.0,44.0,30.22,SE,132,3.0,6.0,96,-99.99,,,-99.99,,2013-01-07 16:33:00,
2013-01-07 08:43:00,45.0,44.0,30.22,SE,132,3.0,6.0,96,-99.99,,,-99.99,,2013-01-07 16:43:00,
2013-01-07 08:52:00,46.0,45.0,30.19,East,100,2.0,8.0,96,-99.99,,,-99.99,,2013-01-07 16:52:00,
2013-01-07 09:02:00,46.0,45.0,30.22,SSE,164,5.0,9.0,96,-99.99,,,-99.99,,2013-01-07 17:02:00,
2013-01-07 09:12:00,46.0,45.0,30.22,SSE,164,5.0,9.0,96,-99.99,,,-99.99,,2013-01-07 17:12:00,
2013-01-07 09:22:00,46.0,45.0,30.23,ESE,120,2.0,10.0,96,-99.99,,,-99.99,,2013-01-07 17:22:00,
2013-01-07 09:32:00,46.0,45.0,30.26,SSE,149,0.0,2.0,96,-99.99,,,-99.99,,2013-01-07 17:32:00,
2013-01-07 09:42:00,46.0,45.0,30.26,SSE,149,0.0,2.0,96,-99.99,,,-99.99,,2013-01-07 17:42:00,
2013-01-07 09:52:00,46.0,45.0,30.25,SSE,149,2.0,5.0,96,-99.99,,,-99.99,,2013-01-07 17:52:00,
2013-01-07 10:02:00,47.0,46.0,30.24,South,171,5.0,5.0,96,-99.99,,,-99.99,,2013-01-07 18:02:00,
2013-01-07 10:12:00,47.0,46.0,30.24,South,171,5.0,5.0,96,-99.99,,,-99.99,,2013-01-07 18:12:00,
2013-01-07 10:23:00,48.0,47.0,30.24,SSE,160,5.0,7.0,96,-99.99,,,-99.99,,2013-01-07 18:23:00,
2013-01-07 10:32:00,49.0,47.0,30.26,ESE,105,2.0,4.0,93,-99.99,,,-99.99,,2013-01-07 18:32:00,
2013-01-07 10:42:00,49.0,47.0,30.26,ESE,105,2.0,4.0,93,-99.99,,,-99.99,,2013-01-07 18:42:00,
2013-01-07 10:52:00,49.0,47.0,30.26,SE,135,1.0,5.0,92,-99.99,,,-99.99,,2013-01-07 18:52:00,
2013-01-07 11:03:00,49.0,46.0,30.26,SSE,151,2.0,3.0,91,-99.99,,,-99.99,,2013-01-07 19:03:00,
2013-01-07 11:12:00,49.0,46.0,30.26,SSE,151,2.0,3.0,91,-99.99,,,-99.99,,2013-01-07 19:12:00,
2013-01-07 11:22:00,50.0,47.0,30.25,SE,124,1.0,4.0,89,-99.99,,,-99.99,,2013-01-07 19:22:00,
2013-01-07 11:33:00,51.0,47.0,30.23,SSE,148,2.0,4.0,87,-99.99,,,-99.99,,2013-01-07 19:33:00,
2013-01-07 11:42:00,51.0,47.0,30.23,SSE,148,2.0,4.0,87,-99.99,,,-99.99,,2013-01-07 19:42:00,
2013-01-07 11:52:00,51.0,47.0,30.23,North,0,0.0,3.0,86,-99.99,,,-99.99,,2013-01-07 19:52:00,
2013-01-07 12:02:00,52.0,48.0,30.22,West,270,1.0,4.0,85,-99.99,,,-99.99,,2013-01-07 20:02:00,
2013-01-07 12:12:00,52.0,48.0,30.22,West,270,1.0,4.0,85,-99.99,,,-99.99,,2013-01-07 20:12:00,
2013-01-07 12:22:00,52.0,48.0,30.21,NNW,335,0.0,4.0,85,-99.99,,,-99.99,,2013-01-07 20:22:00,
2013-01-07 12:33:00,52.0,47.0,30.21,NW,324,3.0,5.0,84,-99.99,,,-99.99,,2013-01-07 20:33:00,
2013-01-07 12:42:00,52.0,47.0,30.21,NW,324,3.0,5.0,84,-99.99,,,-99.99,,2013-01-07 20:42:00,
2013-01-07 12:52:00,52.0,47.0,30.21,NW,324,3.0,5.0,84,-99.99,,,-99.99,,2013-01-07 20:52:00,
2013-01-07 13:02:00,52.0,47.0,30.19,ESE,118,0.0,3.0,83,-99.99,,,-99.99,,2013-01-07 21:02:00,
2013-01-07 13:12:00,52.0,47.0,30.19,ESE,118,0.0,3.0,83,-99.99,,,-99.99,,2013-01-07 21:12:00,
2013-01-07 13:22:00,52.0,47.0,30.19,ESE,115,3.0,4.0,83,-99.99,,,-99.99,,2013-01-07 21:22:00,
2013-01-07 13:32:00,52.0,47.0,30.19,ESE,103,1.0,5.0,82,-99.99,,,-99.99,,2013-01-07 21:32:00,
2013-01-07 13:42:00,52.0,47.0,30.19,ESE,103,1.0,5.0,82,-99.99,,,-99.99,,2013-01-07 21:42:00,
2013-01-07 13:52:00,53.0,48.0,30.19,East,95,3.0,3.0,82,-99.99,,,-99.99,,2013-01-07 21:52:00,
2013-01-07 14:02:00,53.0,47.0,30.18,East,95,2.0,4.0,81,-99.99,,,-99.99,,2013-01-07 22:02:00,
2013-01-07 14:12:00,53.0,47.0,30.18,East,95,2.0,4.0,81,-99.99,,,-99.99,,2013-01-07 22:12:00,
2013-01-07 14:22:00,54.0,48.0,30.18,East,91,1.0,5.0,80,-99.99,,,-99.99,,2013-01-07 22:22:00,
2013-01-07 14:33:00,54.0,48.0,30.17,ESE,106,2.0,3.0,79,-99.99,,,-99.99,,2013-01-07 22:33:00,
2013-01-07 14:42:00,54.0,48.0,30.17,ESE,106,2.0,3.0,79,-99.99,,,-99.99,,2013-01-07 22:42:00,
2013-01-07 14:52:00,55.0,48.0,30.18,NNE,30,1.0,3.0,78,-99.99,,,-99.99,,2013-01-07 22:52:00,
2013-01-07 15:02:00,55.0,48.0,30.17,East,99,0.0,3.0,78,-99.99,,,-99.99,,2013-01-07 23:02:00,
2013-01-07 15:12:00,55.0,48.0,30.17,East,99,0.0,3.0,78,-99.99,,,-99.99,,2013-01-07 23:12:00,
2013-01-07 15:22:00,56.0,49.0,30.16,ENE,76,0.0,2.0,78,-99.99,,,-99.99,,2013-01-07 23:22:00,
2013-01-07 15:32:00,56.0,48.0,30.16,SE,136,3.0,5.0,75,-99.99,,,-99.99,,2013-01-07 23:32:00,
2013-01-07 15:42:00,56.0,48.0,30.16,SE,136,3.0,5.0,75,-99.99,,,-99.99,,2013-01-07 23:42:00,
2013-01-07 15:52:00,57.0,49.0,30.17,East,95,0.0,3.0,75,-99.99,,,-99.99,,2013-01-07 23:52:00,
2013-01-07 16:02:00,57.0,48.0,30.16,ESE,112,3.0,4.0,73,-99.99,,,-99.99,,2013-01-08 00:02:00,
2013-01-07 16:12:00,57.0,48.0,30.16,ESE,112,3.0,4.0,73,-99.99,,,-99.99,,2013-01-08 00:12:00,
2013-01-07 16:22:00,57.0,48.0,30.16,ESE,117,0.0,3.0,73,-99.99,,,-99.99,,2013-01-08 00:22:00,
2013-01-07 16:32:00,57.0,48.0,30.17,East,91,1.0,2.0,73,-99.99,,,-99.99,,2013-01-08 00:32:00,
2013-01-07 16:42:00,57.0,48.0,30.17,East,91,1.0,2.0,73,-99.99,,,-99.99,,2013-01-08 00:42:00,
2013-01-07 16:52:00,57.0,48.0,30.17,NNE,14,1.0,2.0,72,-99.99,,,-99.99,,2013-01-08 00:52:00,
2013-01-07 17:02:00,56.0,47.0,30.17,NNE,13,0.0,2.0,72,-99.99,,,-99.99,,2013-01-08 01:02:00,
2013-01-07 17:11:00,56.0,47.0,30.17,NNE,13,0.0,2.0,72,-99.99,,,-99.99,,2013-01-08 01:11:00,
2013-01-07 17:22:00,56.0,48.0,30.17,NNE,12,0.0,2.0,74,-99.99,,,-99.99,,2013-01-08 01:22:00,
2013-01-07 17:32:00,55.0,48.0,30.17,NNE,12,1.0,2.0,78,-99.99,,,-99.99,,2013-01-08 01:32:00,
2013-01-07 17:42:00,55.0,48.0,30.17,NNE,12,1.0,2.0,78,-99.99,,,-99.99,,2013-01-08 01:42:00,
2013-01-07 17:52:00,55.0,48.0,30.17,West,280,1.0,2.0,78,-99.99,,,-99.99,,2013-01-08 01:52:00,
2013-01-07 18:02:00,54.0,48.0,30.17,West,281,1.0,1.0,80,-99.99,,,-99.99,,2013-01-08 02:02:00,
2013-01-07 18:12:00,54.0,48.0,30.17,West,281,1.0,1.0,80,-99.99,,,-99.99,,2013-01-08 02:12:00,
2013-01-07 18:22:00,54.0,48.0,30.17,WNW,282,1.0,2.0,80,-99.99,,,-99.99,,2013-01-08 02:22:00,
2013-01-07 18:32:00,53.0,47.0,30.16,West,281,1.0,2.0,81,-99.99,,,-99.99,,2013-01-08 02:32:00,
2013-01-07 18:42:00,53.0,47.0,30.16,West,281,1.0,2.0,81,-99.99,,,-99.99,,2013-01-08 02:42:00,
2013-01-07 18:52:00,53.0,48.0,30.16,WNW,282,1.0,2.0,82,-99.99,,,-99.99,,2013-01-08 02:52:00,
2013-01-07 19:03:00,53.0,48.0,30.16,West,281,0.0,1.0,83,-99.99,,,-99.99,,2013-01-08 03:03:00,
2013-01-07 19:12:00,53.0,48.0,30.16,West,281,0.0,1.0,83,-99.99,,,-99.99,,2013-01-08 03:12:00,
2013-01-07 19:22:00,52.0,47.0,30.16,WNW,282,1.0,3.0,83,-99.99,,,-99.99,,2013-01-08 03:22:00,
2013-01-07 19:32:00,52.0,47.0,30.16,WNW,288,1.0,2.0,84,-99.99,,,-99.99,,2013-01-08 03:32:00,
2013-01-07 19:42:00,52.0,47.0,30.16,WNW,288,1.0,2.0,84,-99.99,,,-99.99,,2013-01-08 03:42:00,
2013-01-07 19:52:00,52.0,47.0,30.17,WNW,288,1.0,2.0,84,-99.99,,,-99.99,,2013-01-08 03:52:00,
2013-01-07 20:02:00,52.0,48.0,30.17,WNW,284,2.0,3.0,87,-99.99,,,-99.99,,2013-01-08 04:02:00,
2013-01-07 20:12:00,52.0,48.0,30.17,WNW,284,2.0,3.0,87,-99.99,,,-99.99,,2013-01-08 04:12:00,
2013-01-07 20:22:00,52.0,48.0,30.17,West,272,1.0,3.0,86,-99.99,,,-99.99,,2013-01-08 04:22:00,
2013-01-07 20:32:00,52.0,48.0,30.17,West,275,0.0,1.0,85,-99.99,,,-99.99,,2013-01-08 04:32:00,
2013-01-07 20:42:00,52.0,48.0,30.17,West,275,0.0,1.0,85,-99.99,,,-99.99,,2013-01-08 04:42:00,
2013-01-07 20:52:00,51.0,47.0,30.17,West,274,1.0,2.0,85,-99.99,,,-99.99,,2013-01-08 04:52:00,
2013-01-07 21:03:00,52.0,47.0,30.18,West,275,0.0,1.0,83,-99.99,,,-99.99,,2013-01-08 05:03:00,
2013-01-07 21:12:00,52.0,47.0,30.18,West,275,0.0,1.0,83,-99.99,,,-99.99,,2013-01-08 05:12:00,
2013-01-07 21:22:00,52.0,47.0,30.18,West,274,0.0,1.0,84,-99.99,,,-99.99,,2013-01-08 05:22:00,
2013-01-07 21:33:00,51.0,47.0,30.18,West,278,1.0,3.0,85,-99.99,,,-99.99,,2013-01-08 05:33:00,
2013-01-07 21:42:00,51.0,47.0,30.18,West,278,1.0,3.0,85,-99.99,,,-99.99,,2013-01-08 05:42:00,
2013-01-07 21:52:00,51.0,47.0,30.18,West,278,2.0,3.0,86,-99.99,,,-99.99,,2013-01-08 05:52:00,
2013-01-07 22:02:00,51.0,47.0,30.17,West,279,1.0,3.0,87,-99.99,,,-99.99,,2013-01-08 06:02:00,
2013-01-07 22:11:00,51.0,47.0,30.17,West,279,1.0,3.0,87,-99.99,,,-99.99,,2013-01-08 06:11:00,
2013-01-07 22:22:00,50.0,47.0,30.17,West,278,0.0,1.0,88,-99.99,,,-99.99,,2013-01-08 06:22:00,
2013-01-07 22:32:00,50.0,47.0,30.18,West,279,0.0,1.0,89,-99.99,,,-99.99,,2013-01-08 06:32:00,
2013-01-07 22:42:00,50.0,47.0,30.18,West,279,0.0,1.0,89,-99.99,,,-99.99,,2013-01-08 06:42:00,
2013-01-07 22:52:00,50.0,47.0,30.18,West,278,0.0,0.0,89,-99.99,,,-99.99,,2013-01-08 06:52:00,
2013-01-07 23:02:00,49.0,46.0,30.18,West,279,0.0,1.0,90,-99.99,,,-99.99,,2013-01-08 07:02:00,
2013-01-07 23:11:00,49.0,46.0,30.18,West,279,0.0,1.0,90,-99.99,,,-99.99,,2013-01-08 07:11:00,
2013-01-07 23:22:00,49.0,46.0,30.18,West,279,0.0,1.0,90,-99.99,,,-99.99,,2013-01-08 07:22:00,
2013-01-07 23:32:00,49.0,46.0,30.19,WNW,290,2.0,4.0,90,-99.99,,,-99.99,,2013-01-08 07:32:00,
2013-01-07 23:42:00,49.0,46.0,30.19,WNW,290,2.0,4.0,90,-99.99,,,-99.99,,2013-01-08 07:42:00,
2013-01-07 23:52:00,49.0,46.0,30.18,WNW,291,2.0,4.0,89,-99.99,,,-99.99,,2013-01-08 07:52:00,